Location: Buckenweiler
(49.0667°N, 10.2500°E)
Time: 17:54:30
(UTC+00:00)

NOAA 12 - Pass Details

Date: 18 January 2026
Orbit: 793 x 813 km, 98.6° (Epoch: 16 February)

Event Time Altitude Azimuth Distance (km) Brightness Sun altitude
Rises 05:00:34 0° 11° (NNE) 3,306 7.3 -20.0°
Reaches altitude 10° 05:02:56 10° 8° (N) 2,372 6.5 -19.6°
Maximum altitude 05:08:04 59° 290° (WNW) 913 4.0 -18.8°
Drops below altitude 10° 05:13:11 10° 212° (SSW) 2,360 6.3 -18.0°
Sets 05:15:31 0° 209° (SSW) 3,287 7.1 -17.6°
